Regional Weather Roundup
Issued by NWS

Home | Current Version | Previous Version | Graphics & Text | Print | Product List | Glossary On
Versions: 1 2 3 4 5 6 7 8 9 10 11 12 13 14 15 16 17 18 19 20 21 22 23 24 25 26 27 28 29 30 31 32 33 34 35 36 37 38 39 40 41 42 43 44 45 46 47 48 49 50
000
ASUS45 KTFX 241810
RWRMT
MONTANA REGIONAL WEATHER ROUNDUP
NATIONAL WEATHER SERVICE GREAT FALLS MT
1200 PM MDT WED MAY 24 2017

NOTE: "FAIR" INDICATES FEW OR NO CLOUDS BELOW 12000 FEET WITH NO
SIGNIFICANT WEATHER AND/OR OBSTRUCTIONS TO VISIBILITY.

MTZ001>007-043-241900-
WEST OF THE DIVIDE

CITY           SKY/WX    TMP DP  RH WIND       PRES   REMARKS
KALISPELL      MOSUNNY   57  21  24 W23G36    29.57R
MISSOULA       SUNNY     60  23  24 W21G29    29.65F
BUTTE          SUNNY     60  15  17 W22G33    29.61F
MULLAN PASS    PTSUNNY   37  18  46 W14G25    29.71S WCI  28
ANACONDA         N/A     57  16  19 W28G35    29.62S
DEER LODGE       N/A     55  19  24 W8G25     29.63F
EUREKA           N/A     55  19  24 SW14G20   29.55S
HAMILTON         N/A     57  21  24 SW7G23    29.68F
PLAINS           N/A     59  23  25 SW21      29.69S
RONAN            N/A     58  20  23 SW22      29.71R
$$

MTZ008-052>055-241900-
SOUTHWEST MONTANA

CITY           SKY/WX    TMP DP  RH WIND       PRES   REMARKS
BOZEMAN        SUNNY     71  30  21 NW30G43   29.47R
DILLON         SUNNY     68  35  29 W25G35    29.53F
W YELLOWSTONE  SUNNY     64  41  42 SW30G43   29.63F
ENNIS          PTSUNNY   72  32  23 W22G30    29.55S
THREE FORKS      N/A     70  20  15 W24       29.53R
$$

MTZ009-010-012-014-046-048-049-054-241900-
EAST SLOPES AND CENTRAL MONTANA

CITY           SKY/WX    TMP DP  RH WIND       PRES   REMARKS
CUT BANK       MOSUNNY   58  14  17 W39G54    29.36F
GREAT FALLS    SUNNY     64  21  19 SW31G44   29.44S
MALMSTROM AFB  SUNNY     63  21  19 SW30G48   29.44F
HELENA         SUNNY     65  21  18 W30G40    29.55S
AUGUSTA          N/A     58  13  17 W33G48    29.46F
CHOTEAU          N/A     61  12  15 W23G40    29.45S
CONRAD           N/A     62  31  31 SW35      29.48F
$$

MTZ011-013-016-021-045-047-050-051-241900-
NORTH CENTRAL MONTANA

CITY           SKY/WX    TMP DP  RH WIND       PRES   REMARKS
HAVRE          SUNNY     72  11   9 W38G47    29.31R
LEWISTOWN      CLOUDY    63  31  30 NW26G40   29.40F
N BAR RANCH    PTSUNNY   66  36  32 NW23G30   29.43F
CHINOOK          N/A     72  16  12 SW30G41   29.29R
FORT BENTON      N/A     68  21  17 CALM      29.39F
$$

MTZ017>020-022>027-061-062-241900-
NORTHEAST MONTANA

CITY           SKY/WX    TMP DP  RH WIND       PRES   REMARKS
GLASGOW        MOSUNNY   81  41  24 W24G31    29.24F
JORDAN           N/A     86  35  16 W16G33    29.25F
SIDNEY         SUNNY     73  40  30 S25G35    29.37F
WOLF POINT     MOSUNNY   79  40  24 S15G23    29.27F
MALTA          SUNNY     79  23  12 W29G46    29.22F
PLENTYWOOD       N/A     70  37  30 SE30G37   29.35F
SCOBEY           N/A     75  39  27 SE15      29.31F
$$

MTZ028>42-056>058-241900-
SOUTHCENTRAL AND SOUTHEAST MONTANA

CITY           SKY/WX    TMP DP  RH WIND       PRES   REMARKS
BAKER          SUNNY     71  40  32 SE31G37   29.45F
BILLINGS       MOSUNNY   80  38  22 SW17G28   29.34F
LIVINGSTON     CLOUDY    73  40  30 W24G33    29.40S
MILES CITY     SUNNY     79  45  29 SE17      29.33F
BIG TIMBER     PTSUNNY   72  41  33 W24G37    29.40F
EKALAKA          N/A     69  39  33 SE20      29.49F
FORSYTH          N/A     82  41  23 W9G18     29.32F
LAUREL           N/A     81  44  26 S14       29.40R
ROUNDUP          N/A     76  45  33 W8        29.32F
$$

REGIONAL REPORTS...DAKOTAS

CITY           SKY/WX    TMP DP  RH WIND       PRES   REMARKS
WILLISTON      SUNNY     71  37  28 SE25G37   29.42F
MINOT          SUNNY     68  35  29 SE21G31   29.54F
DICKINSON      SUNNY     66  32  28 S32G39    29.48F
BEACH            N/A     68  37  32 SE31G39   29.46F
TIOGA            N/A     64  34  32 S37G47    29.46F
WATFORD CITY     N/A     68  36  30 S25G36    29.43F
BISMARCK       SUNNY     65  40  39 S21G31    29.61F
GRAND FORKS    MOSUNNY   67  41  38 SE20G30   29.71F
FARGO          PTSUNNY   63  43  48 S14G20    29.72F
BUFFALO SD       N/A     68  40  35 SE30G38   29.44F
RAPID CITY     SUNNY     68  42  38 S22G30    29.57F
$$

REGIONAL REPORTS...WYOMING/IDAHO/WASHINGTON

CITY           SKY/WX    TMP DP  RH WIND       PRES   REMARKS
GILLETTE       SUNNY     73  52  47 S16       29.51F
SHERIDAN       SUNNY     82  45  27 CALM      29.45F
BUFFALO WY     SUNNY     79  44  28 E10       29.51F
CODY           MOSUNNY   75  38  26 VRB5      29.50F
YELLOWSTONE LA   N/A     60  36  40 W10G26    29.72F
IDAHO FALLS    MOSUNNY   74  40  29 SW37G49   29.62F
SALMON         SUNNY     68  28  22 NW17G25   29.54S
BOISE          SUNNY     68  28  22 N22G30    29.77F
SPOKANE        MOSUNNY   56  19  23 W12G21    29.77F
$$

REGIONAL REPORTS...ALBERTA

CITY           SKY/WX    TMP DP  RH WIND       PRES   REMARKS
EDMONTON       RAIN      50  50 100 N32G39    29.13R FOG
CALGARY        LGT RAIN  46  37  71 N13G28    29.26R
LETHBRIDGE     PTSUNNY   57  23  26 W36G48    29.28F
MEDICINE HAT   MOSUNNY   59  37  44 W20G33    29.22R
WATERTON GATE    N/A     50  18  27 SW41G59     N/A
MILK RIVER       N/A     61  18  18 W35G46      N/A
ONEFOUR          N/A     64  19  17 SW33G46     N/A
$$

REGIONAL REPORTS...SASKATCHEWAN

CITY           SKY/WX    TMP DP  RH WIND       PRES   REMARKS
REGINA         MOSUNNY   72  37  28 S38G53    29.23F
SASKATOON      PTSUNNY   72  45  37 SE12G17   29.08F
CYPRESS HILLS    N/A     57  21  24 W23G38      N/A
VAL MARIE        N/A     75  21  13 W33G41      N/A
ROCKGLEN         N/A     75  39  27 S24G32      N/A
$$



USA.gov is the U.S. government's official web portal to all federal, state and local government web resources and services.